Tracking 29892 objects as of 21-Nov-2024
HD Live streaming from Space Station
objects crossing your sky now

STARLINK-30892

Track STARLINK-30892 now!
10-day predictions
STARLINK-30892 is classified as:


NORAD ID: 58366
Int'l Code: 2023-177R
Perigee: 564.3 km
Apogee: 567.9 km
Inclination: 43.0 °
Period: 95.8 minutes
Semi major axis: 6937 km
RCS: Unknown
Launch date: November 18, 2023
Source: United States (US)
Launch site: AIR FORCE EASTERN TEST RANGE (AFETR)
Your satellite tracking list
Your tracking list is empty




NASA's NSSDC Master Catalog

Two Line Element Set (TLE):
1 58366U 23177R   24325.69778383 -.00004420  00000-0 -31207-3 0  9993
2 58366  43.0076  47.2569 0002597 285.0156  75.0399 15.02559049 56928
Source of the keplerian elements: AFSPC